User: anonymous
Location: Albany
(35.0000°S, 118.0000°E)
Time: 08:26:59
(UTC-04:00)
Language:

Radarsat Rocket - Orbit

View from above orbital plane
View from above orbital plane
View from above satellite
View from above satellite

Ground track
Ground track

The orbit data is extracted from the following two-line orbital elements,

1 23711U 95059B   14274.50316256 -.00000055  00000-0 -24080-4 0  7749
2 23711 100.4602 258.1468 0368479 039.9876 063.9533 13.12650786905947
Epoch (UTC): 01 October 2014 12:04:33
Eccentricity: 0.0368479
inclination: 100.4602°
perigee height: 933 km
apogee height: 1492 km
right ascension of ascending node: 258.1468°
argument of perigee: 39.9876°
revolutions per day: 13.12650786
mean anomaly at epoch: 63.9533°
orbit number at epoch: 90594

The dashed part of the orbit path shows where the satellite is in the earth's shadow,  

DLR